Content
SEND FEEDBACK

Daily
Averages
Monthly
Summary
United States of America

RAPID CITY, SOUTH DAKOTA


Home > North America > United States > South Dakota
Elevation: 963 meters     Latitude: 44 03N     Longitude: 103 04W

WEATHER
 
SELECT A DAY
Number of Records: 205,157;   Date Range: 1/1/95 - 12/23/14
 
SHARE

PRINT THIS DATA

[ ← Previous Day ]
WEATHER ALMANAC - 20 FEBRUARY, 2013
[ Next Day → ]
[ °F ]   °C
Weather ElementAverageHighLow
Temperature-5.2 °C0.6 °C (1:52 pm)-11.7 °C (2:52 am)
Dewpoint-11.3 °C-7.8 °C (8:52 pm)-15.6 °C (1:52 am)
Humidity64 %77 % (6:52 am)42 % (12:52 pm)
Barometer1015.2 hPa1019.6 hPa (1:52 am)1009.8 hPa (3:52 pm)
Wind Speed27.4 km/h37 km/h (8:52 am)
Wind Gust48.1 km/h (9:52 am)
Weather ElementAverage
Visibility16.1 km
Wind DirectionSSE (157.8 °)

Weather ElementTotal
Precipitation---
Heating Degree Days23.9 (Base 18.3)
Averaged from 27 records on 20 February, 2013
WEATHER CONDITIONS BREAKOUT
WIND DIRECTION BREAKOUT
WEATHER BY HOUR - 20 FEBRUARY, 2013
[ °F ]   °C
Local TimeTemperatureDewpointHumidityBarometerVisibilityWind DirectionWind SpeedGust SpeedPrecipitationEventsConditions
1:52 AM-11.1 °C-15.6 °C70 %1019.6 hPa16.1 kmSE (140°)25.9 km/hClear
2:52 AM-11.7 °C-15.6 °C73 %1019 hPa16.1 kmSSE (150°)16.7 km/hClear
3:52 AM-11.1 °C-15 °C73 %1018.6 hPa16.1 kmSSE (150°)22.2 km/hClear
4:52 AM-11.1 °C-15 °C73 %1017.9 hPa16.1 kmSE (130°)22.2 km/hClear
5:52 AM-11.1 °C-15 °C73 %1017.6 hPa16.1 kmSE (140°)27.8 km/hClear
6:52 AM-11.7 °C-15 °C77 %1017.6 hPa16.1 kmSE (140°)24.1 km/hClear
7:52 AM-9.4 °C-13.9 °C70 %1017.6 hPa16.1 kmSSE (150°)20.4 km/hClear
8:52 AM-6.1 °C-13.3 °C57 %1016.6 hPa16.1 kmSouth (170°)37 km/h44.4 km/hClear
9:52 AM-4 °C-13 °C50 %1011.5 hPa16.1 kmSouth (180°)37 km/h48.1 km/hScattered Clouds
10:03 AM-4 °C-13 °C50 %1011.5 hPa16.1 kmSouth (180°)29.6 km/h40.7 km/hMostly Cloudy
10:52 AM-3.3 °C-12.8 °C49 %1016.3 hPa16.1 kmSouth (170°)31.5 km/h44.4 km/hMostly Cloudy
11:04 AM-4 °C-13 °C50 %1011.5 hPa16.1 kmSouth (170°)35.2 km/h46.3 km/hPartly Cloudy
11:52 AM-2.2 °C-12.2 °C47 %1015.9 hPa16.1 kmSSE (160°)37 km/h46.3 km/hClear
12:52 PM0 °C-11.7 °C42 %1014.6 hPa16.1 kmSouth (180°)31.5 km/h40.7 km/hClear
1:52 PM0.6 °C-10.6 °C43 %1014.2 hPa16.1 kmSSE (150°)35.2 km/h44.4 km/hMostly Cloudy
2:52 PM-0.6 °C-8.9 °C54 %1014.6 hPa16.1 kmSSE (160°)31.5 km/h42.6 km/hOvercast
3:52 PM-2 °C-9 °C59 %1009.8 hPa16.1 kmSSE (160°)31.5 km/hOvercast
4:52 PM-2.8 °C-8.9 °C63 %1014.9 hPa16.1 kmSSE (160°)31.5 km/h40.7 km/hOvercast
5:40 PM-3 °C-9 °C64 %1010.5 hPa16.1 kmSouth (170°)27.8 km/hOvercast
5:52 PM-3.3 °C-8.9 °C66 %1015.6 hPa16.1 kmSSE (150°)25.9 km/hOvercast
6:52 PM-3.9 °C-8.3 °C72 %1016.3 hPa16.1 kmSSE (150°)25.9 km/hOvercast
7:52 PM-4 °C-8 °C74 %1011.2 hPa16.1 kmSSE (150°)20.4 km/hOvercast
8:52 PM-3.9 °C-7.8 °C75 %1015.6 hPa16.1 kmSSE (160°)27.8 km/hOvercast
9:52 PM-4.4 °C-8.3 °C75 %1016.3 hPa16.1 kmSSE (160°)22.2 km/hOvercast
10:52 PM-4.4 °C-7.8 °C77 %1016.3 hPa16.1 kmSSE (160°)20.4 km/hOvercast
11:08 PM-4 °C-8 °C74 %1012.2 hPa16.1 kmSSE (160°)22.2 km/hOvercast
11:52 PM-4.4 °C-7.8 °C77 %1016.3 hPa16.1 kmSSE (160°)18.5 km/hOvercast
Hourly data recorded from KRAP, located 0 kilometers away from Rapid City, South Dakota







STORIES FROM OUR PARTNERS